Theta_e
316 322 323 324 317 313 317 321 323 322 325 337 342 342 341 344 349 350 348 353 354 357 350 350 347 342 338 334 331 331 333 335 334 329 323 323 325 328 331 330 328 327 330 331 334 335 335 332 329
315 323 323 324 314 315 315 318 322 322 325 338 338 339 340 343 346 350 353 351 352 349 351 349 348 345 339 335 331 330 332 334 334 332 326 323 325 328 330 329 328 327 329 328 328 326 326 327 329
318 323 324 313 312 315 316 320 318 321 324 326 333 337 338 340 341 345 349 351 351 350 351 349 348 347 340 336 333 331 331 331 332 333 331 323 325 326 327 327 328 327 328 329 329 329 328 330 328
321 323 322 318 320 318 319 319 319 319 323 324 333 332 336 339 341 345 347 352 352 353 350 349 348 349 341 337 335 333 332 332 331 332 331 324 324 325 325 325 327 329 328 330 334 333 332 330 325
318 319 315 316 317 317 318 319 320 319 322 323 324 331 334 335 342 342 347 352 354 354 353 349 348 350 343 338 337 335 334 332 331 331 330 325 324 325 325 324 325 329 329 332 330 328 327 325 322
317 316 312 315 316 316 316 319 319 321 322 324 330 325 326 331 334 334 346 353 355 357 356 351 349 350 347 339 338 337 335 331 328 329 329 327 325 326 325 323 322 326 329 327 324 323 323 321 322
315 311 315 316 316 317 317 319 317 317 320 321 324 321 323 325 324 329 339 351 354 361 360 358 350 349 349 341 338 338 336 333 329 327 325 326 325 326 326 324 321 323 327 325 324 322 323 322 322
317 311 315 316 316 316 316 318 318 318 319 321 321 320 322 321 321 324 334 353 358 358 360 359 358 351 351 343 339 338 337 334 329 327 326 326 324 325 326 325 321 323 326 325 324 323 324 321 323
317 310 312 314 315 314 316 315 318 318 317 319 318 318 318 319 322 321 325 351 353 361 358 359 358 356 352 346 339 339 338 335 331 328 325 325 324 323 325 324 323 322 324 324 324 323 324 321 326
313 308 312 312 316 315 316 316 317 317 316 317 318 319 318 318 319 321 321 340 352 349 352 349 354 351 354 351 343 339 338 336 331 328 325 323 323 322 323 324 324 321 322 323 324 325 322 322 327
313 311 312 316 317 317 316 316 317 316 314 317 317 317 317 317 317 318 320 320 334 337 350 348 349 354 355 353 349 340 338 337 334 329 326 324 323 323 324 324 323 322 321 323 324 324 325 328 336
314 315 314 315 316 316 314 316 316 316 316 317 317 317 317 317 317 317 317 319 319 327 349 343 337 352 356 351 349 342 339 338 337 332 327 324 323 322 323 323 322 322 322 324 325 332 337 337 338
314 313 317 317 317 317 317 315 313 315 317 317 317 317 317 317 318 317 317 317 318 321 334 339 340 341 356 352 347 345 345 341 338 336 330 326 323 322 324 324 325 328 329 325 326 334 339 339 340
315 316 316 317 317 317 314 316 315 317 316 317 317 318 318 318 318 318 317 317 317 318 322 330 329 329 338 352 350 350 348 347 344 339 336 329 325 323 326 333 332 339 338 329 338 338 339 340 339
317 314 313 315 315 314 316 313 313 317 318 317 317 318 319 318 319 318 318 317 317 316 320 321 327 324 335 329 334 351 353 349 347 345 340 333 328 324 328 336 338 341 340 339 340 340 339 340 340
315 314 313 312 315 315 315 313 315 317 316 316 317 317 317 318 319 318 317 317 316 316 317 321 321 326 323 321 323 337 351 353 348 346 346 344 335 328 332 339 341 342 342 341 341 341 341 340 341
311 313 311 311 313 312 314 313 313 315 316 316 316 317 318 318 318 318 319 319 318 317 317 318 318 319 321 322 322 324 348 349 347 346 345 345 343 341 332 341 343 343 343 341 340 341 343 343 341
310 310 310 311 311 311 311 312 312 314 315 314 315 318 318 318 318 319 319 319 319 318 319 318 318 319 320 322 322 324 341 345 348 347 348 345 344 345 342 337 342 343 342 341 339 338 336 340 344
312 312 312 313 313 312 313 312 314 315 314 313 314 315 316 317 318 318 319 319 319 319 320 319 318 318 318 323 324 322 322 327 343 347 347 347 345 345 343 345 341 343 340 339 338 337 342 344 344
314 313 312 312 314 314 313 315 315 313 312 315 315 316 316 317 318 319 318 318 319 320 320 320 319 318 318 321 324 321 319 319 323 332 344 341 346 344 346 344 344 342 342 341 338 341 344 345 343
314 314 313 313 314 314 314 314 315 315 315 315 320 320 319 319 320 320 319 319 320 320 320 320 319 318 318 321 323 321 319 318 318 320 335 344 343 341 344 345 345 342 341 341 338 343 345 343 344
313 313 314 315 313 314 314 315 314 314 317 318 318 320 321 321 320 320 319 318 318 320 320 320 319 319 319 322 321 319 318 318 317 318 332 340 343 341 341 337 339 342 340 339 336 344 343 343 343
314 314 314 314 313 312 312 314 313 315 319 317 319 320 320 321 320 319 320 321 321 321 320 320 319 319 319 321 320 318 318 318 319 319 326 327 325 336 339 340 340 340 339 337 337 343 345 345 343
315 313 312 310 309 311 314 319 317 318 319 319 319 320 320 320 320 319 320 320 322 322 320 320 319 319 319 319 319 319 319 319 324 327 331 332 332 335 341 338 336 336 331 337 338 340 343 344 342
313 310 311 312 311 314 314 317 316 320 320 320 320 320 320 320 321 320 322 322 322 323 321 321 322 322 320 321 321 320 321 325 327 327 329 332 335 336 340 342 338 333 330 338 340 342 342 342 339
313 311 310 316 315 315 317 317 315 320 321 321 320 319 319 319 319 319 320 321 321 322 322 323 323 324 323 323 325 324 325 328 327 329 330 330 334 339 339 340 337 336 332 340 341 340 341 336 334
314 314 311 312 314 315 315 316 320 319 319 320 320 320 319 318 319 319 319 320 320 321 321 321 322 322 322 324 330 328 327 330 330 333 331 327 332 336 339 340 341 337 335 340 337 340 332 327 323
313 312 310 311 319 319 316 316 316 320 319 320 321 320 320 318 318 319 318 318 319 320 320 321 321 322 325 325 325 324 323 325 330 330 333 327 330 333 339 340 339 333 334 340 337 326 328 322 322
312 311 314 313 316 318 319 315 319 319 319 318 318 318 319 318 318 319 318 318 318 318 319 320 320 321 321 323 324 325 325 324 328 329 332 325 331 335 336 338 337 335 335 337 329 329 326 323 318
312 312 312 312 313 316 317 315 316 318 318 318 317 317 318 318 318 317 318 318 319 318 317 317 318 320 320 323 324 324 323 324 329 331 326 328 332 334 335 339 339 336 335 330 331 331 324 316 310
Wind_Speed
2 1 1 2 4 5 5 4 1 9 8 11 17 13 6 9 2 4 10 5 5 5 20 24 20 18 16 15 14 15 15 14 12 11 11 12 14 16 16 15 14 14 14 14 12 11 9 7 5
3 2 0 2 4 2 6 4 4 5 6 22 19 18 14 6 17 12 13 8 3 5 14 23 21 19 17 15 14 13 14 13 12 10 10 11 12 14 15 15 14 13 13 12 11 10 9 7 5
3 1 2 4 3 5 5 1 8 22 23 6 6 12 5 5 7 7 6 9 7 5 10 22 21 18 18 16 15 15 14 14 13 11 9 10 11 13 14 14 13 12 11 10 9 8 7 5 3
2 2 2 4 5 7 5 9 16 12 23 5 14 8 7 8 6 5 5 6 6 5 5 19 21 18 18 17 16 14 14 13 13 12 11 11 12 12 12 13 13 12 10 9 8 7 5 4 2
3 2 4 2 5 6 5 11 25 14 3 11 2 4 8 15 11 8 6 5 4 5 6 14 20 18 17 17 16 15 14 13 13 13 12 11 12 13 13 13 13 13 10 8 7 6 5 4 3
3 2 4 1 5 6 7 22 19 11 11 14 18 7 3 10 11 10 7 5 3 5 8 10 19 18 17 17 17 16 14 13 13 14 13 13 13 13 13 12 13 12 10 8 7 6 5 4 3
4 4 3 3 5 6 7 18 19 11 16 16 5 4 4 4 5 4 4 1 2 7 10 6 12 19 18 18 17 16 15 14 13 14 13 13 14 14 13 12 13 12 11 9 7 6 5 4 4
2 4 4 3 3 5 10 17 16 23 9 15 16 4 1 1 3 3 4 5 4 7 8 8 7 13 20 20 19 18 17 15 14 15 14 15 14 14 14 13 13 13 12 10 8 6 5 5 7
3 4 2 4 5 7 9 9 18 20 21 14 16 14 14 16 6 5 5 9 8 8 6 7 8 9 18 22 21 21 19 17 16 16 16 17 17 17 16 15 14 14 13 11 9 8 6 6 11
5 4 5 6 2 5 9 6 10 13 23 19 28 18 21 18 11 6 1 7 13 10 10 11 10 11 13 21 24 23 22 21 19 19 19 18 18 17 16 16 15 15 14 12 10 9 8 8 13
1 5 4 4 10 8 9 9 11 6 7 19 24 30 29 24 16 12 10 5 2 9 12 9 11 13 15 17 27 26 25 23 21 21 20 19 19 19 19 19 18 18 17 14 12 9 9 11 10
4 5 4 8 9 10 5 11 11 9 16 19 23 25 30 29 25 18 14 15 13 3 11 12 13 14 16 18 24 26 25 25 24 22 22 22 22 22 21 21 20 19 18 15 13 12 11 10 7
4 7 21 23 25 27 22 21 10 13 29 21 21 21 23 28 28 23 21 17 19 9 12 15 13 9 15 17 18 24 23 26 25 24 24 24 24 23 22 20 18 16 16 15 14 14 11 11 5
7 16 21 21 25 26 13 23 18 34 33 28 25 25 27 28 29 29 23 23 21 24 15 17 16 14 13 18 21 21 24 23 23 26 26 25 26 25 24 19 18 14 10 15 13 11 10 10 5
13 7 9 12 13 6 16 6 8 37 39 37 33 30 32 38 27 29 24 22 28 24 15 18 21 19 17 16 20 29 25 27 28 25 25 28 27 28 26 22 19 17 12 13 14 14 13 13 10
5 4 3 8 4 6 4 10 6 20 24 27 25 27 29 32 22 25 23 23 24 22 20 15 17 21 21 19 20 25 31 29 30 26 22 23 27 29 28 26 23 19 16 18 15 16 14 13 14
4 5 5 8 9 7 2 21 6 21 24 28 33 30 23 24 26 26 25 23 24 28 25 22 22 24 25 24 21 22 29 30 28 29 31 26 25 24 29 27 25 23 22 20 20 18 18 18 16
6 5 3 6 7 7 8 14 13 23 23 25 31 31 32 35 36 33 33 29 28 27 26 28 21 19 23 25 25 21 23 29 36 31 31 36 32 28 26 29 28 26 27 27 24 24 24 20 15
5 5 10 5 5 7 11 9 20 22 22 22 28 32 38 38 39 31 35 34 32 33 31 31 28 26 22 25 27 26 25 25 29 40 39 32 40 37 35 29 31 29 31 28 27 22 22 23 22
6 7 7 7 7 9 12 18 20 11 13 23 26 30 36 40 40 37 32 32 35 34 35 33 28 25 23 26 29 25 24 28 28 31 35 47 44 37 37 39 33 32 32 30 28 26 26 26 23
5 5 5 9 12 4 12 8 14 19 17 22 19 27 13 16 26 33 33 32 26 35 32 31 29 27 23 27 29 23 22 27 29 30 30 29 39 42 34 42 40 36 34 32 31 30 28 30 25
5 6 6 9 7 10 5 11 12 6 10 5 22 28 27 29 24 19 26 26 30 33 31 30 28 26 20 25 24 20 21 25 23 25 27 23 26 32 43 37 46 32 35 31 31 30 27 30 28
5 6 2 5 9 6 7 2 6 8 6 9 15 27 30 21 28 16 14 3 7 17 28 27 26 21 20 23 21 21 21 18 14 16 19 20 26 26 28 46 39 25 29 28 29 30 32 28 25
5 6 7 5 2 3 3 1 4 4 8 6 14 23 32 24 22 33 12 8 4 10 23 22 22 21 20 21 20 21 22 18 14 16 17 18 19 21 26 32 31 35 27 29 30 34 32 26 23
11 8 5 6 4 5 5 5 8 5 6 6 9 26 31 30 15 19 19 23 16 5 12 10 14 21 25 23 23 24 22 14 15 16 17 16 17 21 19 37 40 35 37 33 31 32 28 23 21
4 6 4 6 4 16 0 6 5 3 1 9 18 24 30 32 30 26 23 24 23 22 18 13 10 7 11 20 26 24 15 16 17 15 19 17 16 20 22 30 35 34 41 34 32 30 24 20 21
4 3 5 4 2 5 4 7 2 3 3 6 8 16 16 30 27 29 24 20 20 19 16 14 13 11 10 9 5 10 15 20 17 16 18 18 14 15 19 23 47 30 36 39 36 30 21 20 18
5 1 4 4 4 5 5 5 6 2 5 6 8 8 19 31 28 24 26 21 18 14 11 12 14 14 12 9 10 9 10 9 11 13 18 19 15 13 16 24 37 40 46 37 28 27 22 20 17
4 2 1 1 3 4 5 5 3 4 4 3 7 9 11 25 26 23 22 22 18 13 12 10 11 11 10 12 12 11 10 7 6 11 16 18 17 15 18 22 37 46 41 22 26 17 18 19 15
5 6 5 4 6 4 4 11 10 7 4 2 9 17 22 20 20 23 20 21 23 20 19 15 13 13 13 14 10 12 14 16 4 10 12 14 13 11 15 34 37 29 26 32 27 20 19 16 18
Wind_Direction
154 130 326 53 55 62 272 266 142 312 6 67 83 102 131 33 87 181 140 122 122 120 170 167 168 163 163 159 156 156 153 150 144 140 143 152 155 153 153 155 157 154 150 150 152 158 161 151 139
169 205 166 73 87 62 269 250 323 264 316 108 91 86 58 70 85 120 137 137 117 144 171 173 172 168 168 161 156 158 157 153 150 149 148 157 160 159 158 159 158 156 157 158 162 172 173 164 156
137 144 111 96 114 193 242 266 306 310 309 343 129 84 83 115 97 135 145 139 123 105 161 180 179 175 173 165 161 162 164 161 159 160 159 162 167 167 164 162 160 162 165 163 165 166 161 168 162
137 94 71 89 237 263 256 298 298 286 283 304 112 87 70 121 90 125 115 166 143 86 140 187 186 184 180 173 168 169 169 167 165 168 170 170 173 174 172 167 166 167 168 167 168 167 170 180 166
58 76 57 34 275 271 287 292 306 276 302 358 247 95 113 99 117 86 86 139 176 151 128 184 194 194 189 183 176 176 176 175 174 175 176 178 181 180 180 177 175 176 174 169 173 177 176 172 164
49 62 60 261 274 285 313 349 355 351 31 62 85 71 65 109 101 60 82 122 191 178 170 171 196 204 201 194 187 183 185 184 183 185 184 185 187 188 188 185 185 184 179 176 173 172 175 173 143
119 85 209 301 275 330 7 358 22 341 12 16 97 78 101 116 62 71 92 82 138 181 173 180 198 206 208 206 198 194 194 193 192 194 194 194 194 195 196 195 194 191 186 188 191 190 182 162 131
189 95 345 263 296 289 345 358 356 8 19 0 27 44 156 57 83 319 97 114 147 170 177 186 215 222 215 211 207 205 203 202 202 201 202 201 201 201 203 204 203 199 195 197 202 204 190 170 142
189 67 256 272 30 285 345 6 351 347 356 353 358 17 0 360 211 187 230 164 191 173 204 236 224 232 230 218 214 211 211 211 210 209 209 209 207 204 207 208 209 207 205 206 208 209 199 181 163
130 117 236 204 234 298 316 4 360 353 341 339 334 318 334 340 10 217 42 144 202 219 223 248 250 252 235 234 224 219 218 217 217 216 215 215 214 212 212 213 212 214 212 212 215 214 201 185 170
262 180 226 285 333 352 321 324 325 337 316 310 313 313 314 317 322 330 299 335 141 248 232 238 260 250 237 250 230 222 223 224 225 224 223 221 219 214 214 215 215 215 213 214 216 209 193 182 188
7 325 345 331 328 322 298 288 290 275 274 289 295 299 302 300 300 303 306 290 295 278 227 240 253 256 251 241 232 228 229 231 231 232 229 224 223 220 218 218 220 222 220 216 211 193 183 185 205
32 336 337 324 319 317 317 303 268 264 289 284 278 285 284 292 293 290 287 283 287 258 239 247 230 242 244 241 228 231 235 238 239 238 236 230 229 225 222 219 219 220 224 218 213 196 197 202 194
312 315 303 299 297 296 286 280 289 285 281 277 277 281 272 273 277 282 279 277 274 277 241 244 248 248 238 248 246 243 244 244 244 242 244 240 235 230 228 220 216 206 207 196 189 197 206 210 222
294 306 320 294 280 274 305 305 253 267 271 275 274 282 280 278 283 262 264 279 263 273 251 239 243 247 233 253 262 244 247 247 246 248 245 244 240 234 231 227 225 215 205 202 219 221 217 218 229
359 350 324 281 320 270 320 285 285 313 295 276 288 296 299 270 270 251 248 253 265 264 261 242 247 250 257 265 267 262 245 247 243 242 243 245 241 237 233 232 233 228 222 229 229 228 221 224 240
345 248 266 319 300 304 323 299 286 308 291 285 289 288 281 286 257 240 243 251 252 257 258 263 250 247 254 256 265 264 252 244 243 245 245 242 237 240 235 236 241 245 237 234 223 221 225 221 230
253 271 262 282 295 346 318 304 318 312 307 288 288 281 289 286 277 266 251 248 247 250 253 252 254 243 246 251 248 254 250 250 241 242 245 243 234 236 236 241 234 238 231 234 233 239 246 233 232
265 301 312 326 299 332 302 300 302 306 292 287 288 283 284 284 285 272 258 254 249 242 241 242 247 250 246 247 243 253 263 264 256 247 242 240 241 232 231 242 236 234 234 235 234 232 216 230 226
331 320 302 267 320 316 301 301 294 297 278 289 292 296 291 287 285 276 256 254 255 244 244 240 240 245 248 249 243 250 269 279 270 265 260 252 236 242 232 233 237 231 233 230 230 223 231 226 226
291 245 285 283 315 266 293 284 293 308 290 297 345 349 336 304 295 269 258 242 243 240 234 230 232 232 240 238 239 250 274 285 283 270 271 265 249 245 237 234 243 232 231 230 233 228 232 234 227
286 234 273 321 352 309 3 301 320 304 318 12 349 3 350 348 2 291 253 248 246 256 233 226 223 228 238 232 236 254 279 287 284 279 274 285 276 266 245 245 249 231 228 229 228 234 233 231 233
259 309 307 282 290 308 305 276 284 330 331 334 4 1 349 358 346 351 50 259 232 243 225 219 220 229 239 228 248 261 267 292 297 294 286 277 280 281 257 226 215 222 234 233 234 233 237 240 240
295 356 350 357 52 5 263 105 268 352 297 2 15 27 12 340 343 322 34 44 101 209 208 216 225 228 235 242 255 258 265 282 304 315 302 291 279 271 248 215 223 213 223 240 236 237 239 236 231
21 33 330 340 355 233 307 323 262 306 335 61 23 23 12 18 346 1 72 74 77 108 211 225 236 231 231 235 244 251 256 286 306 318 317 306 284 273 261 224 219 206 219 232 228 234 235 228 225
274 146 159 279 294 296 157 254 268 212 198 53 35 34 12 352 4 15 42 64 74 75 73 64 53 26 270 258 250 258 263 282 290 302 315 319 297 276 261 231 218 235 219 221 217 233 221 211 218
286 238 225 257 245 303 247 279 292 330 3 48 51 359 4 322 344 11 33 41 49 68 65 59 57 46 35 36 260 275 281 268 277 297 307 321 300 279 261 247 224 218 225 221 215 203 191 205 207
230 338 338 324 290 267 272 274 240 318 347 8 20 353 279 316 328 341 3 11 26 33 45 56 55 57 46 23 0 0 348 304 283 292 304 318 303 271 252 235 202 199 213 205 191 180 174 198 199
302 317 325 170 228 253 283 263 250 244 224 43 292 279 241 303 308 308 327 344 348 355 352 355 11 24 34 25 11 351 349 335 278 290 307 318 302 260 248 224 205 202 191 196 182 174 190 209 200
196 186 142 131 279 250 260 268 254 216 248 237 278 288 272 275 274 288 294 291 308 324 326 326 322 335 357 5 352 339 309 336 302 291 312 308 301 258 240 201 193 191 191 160 164 189 194 189 182